INTELSAT 35E (IS-35E)

Last updated on Sun Apr 12 2026 00:02:54 GMT+0000 (Coordinated Universal Time)

1 42818U 17041A 26101.44259500 -.00000236 00000+0 00000+0 0 9995 2 42818 0.0205 218.3372 0002094 165.0063 301.1651 1.00271931 32145
UTC large
Height (km)
Speed (km/s)
/
Latitude / Longitude
Inclination (degrees)
Orbital Period (minutes)
Azimuth
Elevation
Range (km)
Doppler Factor

Next 0 passes for location: London (51.5072 / 0.1276)

Sorry there are no passes over London.
INTELSAT 35E (IS-35E)